• In Czech Republic
  • List of Countries
  • For 7 days
  • Water Temperature
  • Satellite Maps
  • Weather Map
  • Weather Widgets
  • user-avatar
    Login

    Hourly Weather Severnyy-Kospashskiy

    Today, 21 August, Tuesday

    Time Temperature Precipitation Wind Pressure Humidity
    00:00 +10°C° 0 mm 1 mps 727 mmHg 89%
    01:00 +10°C° 0 mm 1 mps 727 mmHg 90%
    02:00 +10°C° 0.1 mm 1 mps 727 mmHg 91%
    03:00 +10°C° 0.1 mm 1 mps 727 mmHg 91%
    04:00 +10°C° 0 mm 1 mps 727 mmHg 92%
    05:00 +11°C° 0 mm 1 mps 726 mmHg 92%
    06:00 +11°C° 0 mm 1 mps 726 mmHg 91%
    07:00 +12°C° 0 mm 1 mps 726 mmHg 90%
    08:00 +13°C° 0 mm 2 mps 726 mmHg 85%
    09:00 +15°C° 0 mm 2 mps 726 mmHg 80%
    10:00 +17°C° 0 mm 2 mps 726 mmHg 74%
    11:00 +17°C° 0.1 mm 2 mps 726 mmHg 74%
    12:00 +19°C° 0.1 mm 1 mps 726 mmHg 74%
    13:00 +20°C° 0.1 mm 1 mps 726 mmHg 73%
    14:00 +20°C° 0.2 mm 1 mps 726 mmHg 73%
    15:00 +20°C° 0.2 mm 1 mps 725 mmHg 73%
    16:00 +20°C° 0.2 mm 1 mps 725 mmHg 73%
    17:00 +19°C° 0 mm 1 mps 725 mmHg 78%
    18:00 +16°C° 0 mm 0 mps 724 mmHg 83%
    19:00 +15°C° 0 mm 0 mps 724 mmHg 88%
    20:00 +14°C° 0 mm 0 mps 724 mmHg 90%
    21:00 +14°C° 0 mm 1 mps 724 mmHg 93%
    22:00 +13°C° 0 mm 1 mps 724 mmHg 95%
    23:00 +13°C° 0 mm 1 mps 724 mmHg 96%

    Tomorrow, 22 August, Wednesday

    Time Temperature Precipitation Wind Pressure Humidity
    00:00 +13°C° 0 mm 1 mps 723 mmHg 96%
    01:00 +12°C° 0 mm 1 mps 723 mmHg 97%
    02:00 +12°C° 0 mm 1 mps 723 mmHg 97%
    03:00 +12°C° 0 mm 1 mps 723 mmHg 97%
    04:00 +12°C° 0 mm 1 mps 723 mmHg 98%
    05:00 +13°C° 0 mm 2 mps 722 mmHg 97%
    06:00 +14°C° 0 mm 2 mps 722 mmHg 95%
    07:00 +14°C° 0 mm 3 mps 722 mmHg 94%
    08:00 +16°C° 0 mm 3 mps 722 mmHg 90%
    09:00 +17°C° 0 mm 3 mps 721 mmHg 85%
    10:00 +19°C° 0 mm 3 mps 721 mmHg 81%
    11:00 +20°C° 0.6 mm 3 mps 721 mmHg 81%
    12:00 +20°C° 0.6 mm 4 mps 721 mmHg 81%
    13:00 +21°C° 0.6 mm 4 mps 720 mmHg 81%
    14:00 +21°C° 1 mm 4 mps 720 mmHg 84%
    15:00 +20°C° 1 mm 4 mps 720 mmHg 87%
    16:00 +19°C° 1 mm 4 mps 720 mmHg 89%
    17:00 +18°C° 0.4 mm 3 mps 720 mmHg 92%
    18:00 +16°C° 0.4 mm 3 mps 720 mmHg 94%
    19:00 +13°C° 0.4 mm 3 mps 720 mmHg 96%
    20:00 +13°C° 0.4 mm 2 mps 720 mmHg 97%
    21:00 +12°C° 0.4 mm 2 mps 720 mmHg 97%
    22:00 +10°C° 0.4 mm 2 mps 720 mmHg 97%
    23:00 +10°C° 0.2 mm 2 mps 720 mmHg 97%

    Day after tomorrow, 23 August, Thursday

    Time Temperature Precipitation Wind Pressure Humidity
    00:00 +10°C° 0.2 mm 2 mps 721 mmHg 98%
    01:00 +10°C° 0.2 mm 2 mps 721 mmHg 98%
    02:00 +9°C° 0 mm 2 mps 721 mmHg 98%
    03:00 +9°C° 0 mm 2 mps 721 mmHg 98%
    04:00 +8°C° 0 mm 2 mps 721 mmHg 98%
    05:00 +8°C° 0 mm 2 mps 721 mmHg 97%
    06:00 +8°C° 0 mm 3 mps 722 mmHg 97%
    07:00 +8°C° 0 mm 3 mps 722 mmHg 96%
    08:00 +8°C° 0.1 mm 3 mps 722 mmHg 95%
    09:00 +8°C° 0.1 mm 3 mps 722 mmHg 94%
    10:00 +8°C° 0.1 mm 3 mps 723 mmHg 93%
    11:00 +8°C° 0.1 mm 3 mps 723 mmHg 93%
    12:00 +9°C° 0.1 mm 3 mps 723 mmHg 92%
    13:00 +9°C° 0.1 mm 3 mps 723 mmHg 92%
    14:00 +9°C° 0.2 mm 3 mps 724 mmHg 92%
    15:00 +8°C° 0.2 mm 4 mps 724 mmHg 92%
    16:00 +7°C° 0.2 mm 4 mps 724 mmHg 93%
    17:00 +7°C° 0.2 mm 4 mps 724 mmHg 94%
    18:00 +8°C° 0.2 mm 3 mps 724 mmHg 94%
    19:00 +8°C° 0.2 mm 3 mps 725 mmHg 95%
    20:00 +8°C° 0.2 mm 3 mps 725 mmHg 96%
    21:00 +7°C° 0.2 mm 3 mps 725 mmHg 96%
    22:00 +7°C° 0.2 mm 3 mps 725 mmHg 96%
    23:00 +7°C° 0.1 mm 3 mps 725 mmHg 96%

    24 August, Friday

    Time Temperature Precipitation Wind Pressure Humidity
    00:00 +7°C° 0.1 mm 3 mps 725 mmHg 97%
    01:00 +7°C° 0.1 mm 3 mps 725 mmHg 97%
    02:00 +6°C° 0.1 mm 4 mps 725 mmHg 97%
    03:00 +6°C° 0.1 mm 4 mps 725 mmHg 97%
    04:00 +6°C° 0.1 mm 4 mps 725 mmHg 96%
    05:00 +6°C° 0.1 mm 4 mps 725 mmHg 96%
    06:00 +6°C° 0.1 mm 4 mps 725 mmHg 96%
    07:00 +6°C° 0.1 mm 4 mps 725 mmHg 95%
    08:00 +6°C° 0.4 mm 4 mps 725 mmHg 95%
    09:00 +6°C° 0.4 mm 4 mps 725 mmHg 95%
    10:00 +6°C° 0.4 mm 4 mps 725 mmHg 95%
    11:00 +7°C° 0.3 mm 4 mps 725 mmHg 95%
    12:00 +8°C° 0.3 mm 4 mps 726 mmHg 94%
    13:00 +8°C° 0.3 mm 4 mps 726 mmHg 94%
    14:00 +10°C° 0 mm 4 mps 726 mmHg 92%
    15:00 +11°C° 0 mm 4 mps 727 mmHg 91%
    16:00 +11°C° 0 mm 4 mps 727 mmHg 90%
    17:00 +11°C° 0 mm 4 mps 727 mmHg 90%
    18:00 +11°C° 0 mm 3 mps 728 mmHg 90%
    19:00 +11°C° 0 mm 3 mps 728 mmHg 91%
    20:00 +10°C° 0 mm 3 mps 728 mmHg 93%
    21:00 +9°C° 0 mm 2 mps 728 mmHg 95%
    22:00 +8°C° 0 mm 2 mps 729 mmHg 97%
    23:00 +8°C° 0 mm 2 mps 729 mmHg 97%

    25 August, Saturday

    Time Temperature Precipitation Wind Pressure Humidity
    00:00 +8°C° 0 mm 2 mps 729 mmHg 98%
    01:00 +7°C° 0 mm 2 mps 729 mmHg 98%
    02:00 +7°C° 0 mm 2 mps 730 mmHg 98%
    03:00 +7°C° 0 mm 2 mps 730 mmHg 98%
    04:00 +7°C° 0 mm 2 mps 730 mmHg 98%
    05:00 +8°C° 0 mm 2 mps 731 mmHg 97%
    06:00 +9°C° 0 mm 2 mps 731 mmHg 95%
    07:00 +10°C° 0 mm 2 mps 732 mmHg 93%
    08:00 +13°C° 0 mm 2 mps 732 mmHg 86%
    09:00 +15°C° 0 mm 2 mps 732 mmHg 78%
    10:00 +17°C° 0 mm 2 mps 732 mmHg 71%
    11:00 +18°C° 0 mm 3 mps 732 mmHg 66%
    12:00 +19°C° 0 mm 3 mps 732 mmHg 62%
    13:00 +20°C° 0 mm 3 mps 732 mmHg 57%
    14:00 +20°C° 0 mm 3 mps 732 mmHg 56%
    15:00 +20°C° 0 mm 3 mps 732 mmHg 54%
    16:00 +20°C° 0 mm 4 mps 732 mmHg 53%
    17:00 +19°C° 0 mm 3 mps 732 mmHg 60%
    18:00 +17°C° 0 mm 2 mps 732 mmHg 67%
    19:00 +15°C° 0 mm 2 mps 732 mmHg 75%
    20:00 +14°C° 0 mm 1 mps 732 mmHg 79%
    21:00 +12°C° 0 mm 1 mps 733 mmHg 83%
    22:00 +11°C° 0 mm 1 mps 733 mmHg 87%
    23:00 +11°C° 0 mm 1 mps 733 mmHg 89%

    26 August, Sunday

    Time Temperature Precipitation Wind Pressure Humidity
    00:00 +11°C° 0 mm 1 mps 733 mmHg 90%
    01:00 +10°C° 0 mm 1 mps 733 mmHg 92%
    02:00 +10°C° 0 mm 1 mps 733 mmHg 92%
    03:00 +10°C° 0 mm 1 mps 734 mmHg 92%
    04:00 +10°C° 0 mm 1 mps 734 mmHg 93%
    05:00 +11°C° 0 mm 1 mps 734 mmHg 89%
    06:00 +12°C° 0 mm 1 mps 734 mmHg 85%
    07:00 +13°C° 0 mm 1 mps 735 mmHg 81%
    08:00 +16°C° 0 mm 1 mps 735 mmHg 73%
    09:00 +19°C° 0 mm 1 mps 735 mmHg 65%
    10:00 +21°C° 0 mm 1 mps 735 mmHg 57%
    11:00 +21°C° 0 mm 2 mps 735 mmHg 55%
    12:00 +23°C° 0 mm 2 mps 735 mmHg 52%
    13:00 +24°C° 0 mm 2 mps 735 mmHg 49%
    14:00 +24°C° 0 mm 2 mps 735 mmHg 50%
    15:00 +24°C° 0 mm 2 mps 735 mmHg 51%
    16:00 +24°C° 0 mm 2 mps 735 mmHg 52%
    17:00 +21°C° 0 mm 2 mps 735 mmHg 62%
    18:00 +20°C° 0 mm 2 mps 735 mmHg 71%
    19:00 +19°C° 0 mm 1 mps 734 mmHg 80%
    20:00 +18°C° 0 mm 1 mps 735 mmHg 84%
    21:00 +15°C° 0 mm 1 mps 735 mmHg 88%
    22:00 +14°C° 0 mm 1 mps 735 mmHg 91%
    23:00 +14°C° 0 mm 1 mps 735 mmHg 92%
    Show more